EW9934 Weather Reports


Display with metric or nautical units.
time (UTC)temp
F
wind
direction
speed
MPH
gust
MPH
rain 1hr
in
rain 24hr
in
rain mn
in
humidity
%
barometer
mb
20180814110027 62 249 0.0 0.0 0.00 0.00 0.00 57 1007.7
20180814104538 63 249 0.0 0.0 0.00 0.00 0.00 60 1007.6
20180814103020 63 249 0.0 0.0 0.00 0.00 0.00 57 1007.6
20180814101523 64 249 0.0 0.0 0.00 0.00 0.00 54 1007.7
20180814100043 63 249 0.0 0.0 0.00 0.00 0.00 55 1007.7
20180814093009 63 249 0.0 0.0 0.00 0.00 0.00 58 1007.9
20180814091507 64 249 0.0 0.0 0.00 0.00 0.00 59 1008.0
20180814090005 64 250 0.0 0.0 0.00 0.00 0.00 56 1008.2
20180814084503 64 249 0.0 0.0 0.00 0.00 0.00 58 1008.4
20180814083002 65 249 0.0 0.0 0.00 0.00 0.00 55 1008.5
20180814081605 64 146 0.0 0.0 0.00 0.00 0.00 55 1008.6
20180814080100 64 146 0.0 0.0 0.00 0.00 0.00 58 1008.5
20180814074601 64 146 0.0 0.0 0.00 0.00 0.00 58 1008.5
20180814073119 64 146 0.0 0.0 0.00 0.00 0.00 55 1008.5
20180814071552 64 146 0.0 0.0 0.00 0.00 0.00 56 1008.7
20180814070115 64 229 0.0 0.0 0.00 0.00 0.00 61 1008.7
20180814064634 65 229 0.0 0.0 0.00 0.00 0.00 58 1008.7
20180814063110 64 229 0.0 0.0 0.00 0.00 0.00 57 1008.6
20180814061610 64 230 0.0 0.0 0.00 0.00 0.00 68 1008.5
20180814060042 64 236 0.0 1.0 0.00 0.00 0.00 66 1008.8
20180814054546 64 127 0.0 0.0 0.00 0.00 0.00 60 1009.0
20180814053045 65 127 0.0 0.0 0.00 0.00 0.00 60 1009.0
20180814051533 66 127 0.0 0.0 0.00 0.00 0.00 60 1009.1
20180814050049 66 127 0.0 0.0 0.00 0.00 0.00 58 1009.1
20180814044523 67 126 0.0 0.0 0.00 0.00 0.00 56 1008.9
20180814043021 68 41 0.0 6.0 0.00 0.00 0.00 54 1008.8
20180814041531 67 243 0.0 0.0 0.00 0.00 0.00 55 1008.7
20180814040039 68 328 0.0 2.0 0.00 0.00 0.00 55 1008.3
20180814034519 68 21 0.0 2.0 0.00 0.00 0.00 54 1008.0
20180814033006 69 15 0.0 3.0 0.00 0.00 0.00 53 1008.0
20180814031509 70 339 0.0 1.0 0.00 0.00 0.00 52 1007.9
20180814030100 70 19 0.0 4.0 0.00 0.00 0.00 51 1007.5
20180814024623 71 322 0.0 4.0 0.00 0.00 0.00 49 1007.4
20180814023049 74 4 0.0 4.0 0.00 0.00 0.00 46 1007.3
20180814021544 76 18 1.0 5.0 0.00 0.00 0.00 44 1007.1
20180814020039 77 60 1.0 6.0 0.00 0.00 0.00 44 1007.4
20180814014536 78 103 1.0 8.0 0.00 0.00 0.00 42 1007.3
20180814013034 78 307 0.0 6.0 0.00 0.00 0.00 42 1007.6
20180814011540 79 243 1.0 5.0 0.00 0.00 0.00 40 1007.7
20180814010030 78 317 1.0 5.0 0.00 0.00 0.00 42 1007.9
20180814004527 78 326 1.0 8.0 0.00 0.00 0.00 41 1007.8
20180814003036 80 150 1.0 9.0 0.00 0.00 0.00 39 1007.8
20180814001533 80 290 1.0 7.0 0.00 0.00 0.00 41 1007.7
20180814000021 80 300 1.0 7.0 0.00 0.00 0.00 40 1007.6
20180813234513 82 341 1.0 10.0 0.00 0.00 0.00 38 1007.6
20180813233008 83 290 2.0 7.0 0.00 0.00 0.00 38 1007.7
20180813231503 82 46 0.0 8.0 0.00 0.00 0.00 39 1007.6
20180813230118 83 86 0.0 7.0 0.00 0.00 0.00 38 1007.9
20180813224558 83 71 1.0 7.0 0.00 0.00 0.00 36 1008.3
20180813223055 84 262 0.0 4.0 0.00 0.00 0.00 35 1008.7
20180813221554 84 282 2.0 5.0 0.00 0.00 0.00 34 1008.8
20180813215042 85 278 0.0 3.0 0.00 0.00 0.00 33 1009.1
20180813213540 84 91 0.0 5.0 0.00 0.00 0.00 34 1009.4
20180813211536 84 259 1.0 5.0 0.00 0.00 0.00 34 1009.7
20180813210031 84 206 0.0 4.0 0.00 0.00 0.00 35 1009.9
20180813204549 83 319 0.0 3.0 0.00 0.00 0.00 37 1009.8
20180813203020 82 316 1.0 5.0 0.00 0.00 0.00 38 1010.0
20180813201524 82 307 0.0 4.0 0.00 0.00 0.00 38 1010.0
20180813200015 81 301 0.0 6.0 0.00 0.00 0.00 39 1010.1
20180813195014 82 358 0.0 6.0 0.00 0.00 0.00 38 1010.2
20180813193508 80 273 0.0 4.0 0.00 0.00 0.00 39 1010.2
20180813192003 79 278 1.0 5.0 0.00 0.00 0.00 40 1010.3
20180813190502 78 220 1.0 8.0 0.00 0.00 0.00 41 1010.3
20180813184954 77 243 1.0 8.0 0.00 0.00 0.00 41 1010.4
20180813183451 78 255 2.0 8.0 0.00 0.00 0.00 41 1010.5
20180813181949 79 41 1.0 4.0 0.00 0.00 0.00 40 1010.6
20180813180451 78 32 0.0 4.0 0.00 0.00 0.00 39 1010.8
20180813173444 76 258 0.0 3.0 0.00 0.00 0.00 41 1010.7
20180813171941 75 58 1.0 5.0 0.00 0.00 0.00 42 1010.7
20180813170437 73 217 1.0 4.0 0.00 0.00 0.00 41 1010.8
20180813164935 72 313 1.0 5.0 0.00 0.00 0.00 41 1010.8
20180813163433 71 1 1.0 5.0 0.00 0.00 0.00 41 1010.6
20180813161933 71 219 1.0 7.0 0.00 0.00 0.00 40 1010.6
20180813160434 70 216 2.0 5.0 0.00 0.00 0.00 40 1010.6
20180813154931 69 269 0.0 4.0 0.00 0.00 0.00 43 1010.6
20180813153426 69 260 0.0 1.0 0.00 0.00 0.00 43 1010.6
20180813151924 68 338 0.0 3.0 0.00 0.00 0.00 45 1010.3
20180813150424 67 250 0.0 1.0 0.00 0.00 0.00 45 1010.4
20180813144922 67 314 0.0 4.0 0.00 0.00 0.00 45 1010.5
20180813143416 66 220 0.0 2.0 0.00 0.00 0.00 46 1010.5
20180813141914 66 221 0.0 4.0 0.00 0.00 0.00 46 1010.4
20180813140412 65 212 0.0 3.0 0.00 0.00 0.00 46 1010.4
20180813134912 65 237 0.0 2.0 0.00 0.00 0.00 48 1010.6
20180813133410 65 221 1.0 3.0 0.00 0.00 0.00 50 1010.5
20180813131905 65 240 0.0 2.0 0.00 0.00 0.00 48 1010.5
20180813130403 65 294 0.0 4.0 0.00 0.00 0.00 48 1010.4
20180813124902 65 227 0.0 1.0 0.00 0.00 0.00 54 1010.3
20180813123356 65 325 0.0 1.0 0.00 0.00 0.00 55 1010.1
20180813121855 65 223 0.0 3.0 0.00 0.00 0.00 53 1010.3
20180813120352 65 228 0.0 3.0 0.00 0.00 0.00 53 1010.2
20180813114851 65 217 0.0 4.0 0.00 0.00 0.00 53 1010.1
20180813113345 65 82 0.0 1.0 0.00 0.00 0.00 55 1010.2
20180813111844 65 323 0.0 1.0 0.00 0.00 0.00 56 1010.1